Miscellaneous Local Product
Issued by NWS Hastings, NE

Home | Current Version | Previous Version | Text Only | Print | Product List | Glossary On
Versions: 1 2 3 4 5 6 7 8 9 10 11 12 13 14 15 16 17 18 19 20 21 22 23 24 25 26 27 28 29 30 31 32 33 34 35 36 37 38 39 40 41 42 43 44 45 46 47 48 49 50
000
AXUS43 KGID 211102
MISGRI

GID CWA HOURLY WEATHER ROUNDUP
NATIONAL WEATHER SERVICE HASTINGS NE
600 AM CDT TUE APR 21 2015

NOTE: "FAIR" INDICATES FEW OR NO CLOUDS BELOW 12,000 FEET WITH NO
SIGNIFICANT WEATHER AND/OR OBSTRUCTIONS TO VISIBILITY.

...SOUTH CENTRAL NEBRASKA...

CITY           SKY/WX    TMP DP  RH WIND       PRES   REMARKS
GRAND ISLAND   CLOUDY    39  29  67 W8        29.87F WCI  33
HASTINGS       CLEAR     36  28  73 W7        29.86F WCI  30
KEARNEY        FAIR      34  27  75 W6        29.88S WCI  29
ORD            PTCLDY    36  27  69 W7        29.84F WCI  30
YORK           CLOUDY    41  32  70 W9        29.86F
AURORA         CLOUDY    40  32  72 W8        29.86F WCI  34
LEXINGTON      CLEAR     31  29  90 NW6       29.89F WCI  26
HOLDREGE       FAIR      34  29  80 NW6       29.88F WCI  29
HEBRON         MOCLDY    38  28  67 W3        29.88S

...NEBRASKA PANHANDLE...

CITY           SKY/WX    TMP DP  RH WIND       PRES   REMARKS
CHADRON        CLEAR     25  20  81 SW6       29.86F WCI  18
ALLIANCE       CLEAR     22  19  89 SW6       29.88F WCI  14
SCOTTSBLUFF    PTCLDY    28  24  85 CALM      29.90F
SIDNEY         CLEAR     29  26  89 NW8       29.90F WCI  21

...WESTERN AND NORTH CENTRAL NEBRASKA...

CITY           SKY/WX    TMP DP  RH WIND       PRES   REMARKS
VALENTINE      CLEAR     30  23  75 W6        29.83F WCI  24
AINSWORTH      CLEAR     33  26  76 W10       29.82F WCI  25
ONEILL         CLEAR     33  25  72 W9        29.81F WCI  25
BROKEN BOW     CLEAR     33  25  72 CALM      29.86F
IMPERIAL         N/A    N/A N/A N/A MISG      29.90S
NORTH PLATTE   CLEAR     25  22  88 NW5       29.89F WCI  19
MCCOOK         CLEAR     36  28  73 N3        29.88F

...EASTERN NEBRASKA...

CITY           SKY/WX    TMP DP  RH WIND       PRES   REMARKS
NORFOLK        CLEAR     34  23  64 W7        29.80S WCI  28
SO SIOUX CITY  CLEAR     33  16  49 W8        29.77F WCI  26
TEKAMAH        CLEAR     37  24  59 W13       29.79S WCI  29
COLUMBUS       CLEAR     37  21  52 W7        29.84F WCI  32
ALBION         CLEAR     37  22  54 CALM      29.83F
OMAHA EPPLEY   CLEAR     40  25  55 W9        29.81S WCI  34
OFFUTT AFB     CLEAR     38  27  63 W6        29.81S WCI  34
MILLARD        CLEAR     38  26  63 CALM      29.82F
LINCOLN        PTCLDY    43  29  57 W8        29.85F
NEBRASKA CITY  PTCLDY    40  27  59 W12       29.83F WCI  32
BEATRICE       PTCLDY    39  31  73 W7        29.86S WCI  34
FALLS CITY     CLOUDY    44  32  62 W9        29.84S

...NORTHERN KANSAS...

CITY           SKY/WX    TMP DP  RH WIND       PRES   REMARKS
GOODLAND       CLEAR     38  32  79 W13       29.90F WCI  30
HILL CITY      CLEAR     38  32  79 NW8       29.89R WCI  32
NORTON         SUNNY     34  27  75 NW7       29.88S WCI  28
PHILLIPSBURG   CLEAR     37  32  81 W3        29.89S
SMITH CENTER   CLEAR     30  27  86 CALM      29.88F
BELOIT         PTCLDY    32  30  93 CALM      29.88S
HAYS           CLOUDY    45  30  57 W10       29.88S
RUSSELL        CLOUDY    43  35  73 SW9       29.85F
CONCORDIA      FAIR      39  29  67 CALM      29.87F
SALINA         MOCLDY    41  35  79 CALM      29.89R
TOPEKA         CLOUDY    38  34  85 W3        29.88S



USA.gov is the U.S. government's official web portal to all federal, state and local government web resources and services.